TimeEET,TemperatureF,Dew PointF,Humidity,Sea Level PressureIn,VisibilityMPH,Wind Direction,Wind SpeedMPH,Gust SpeedMPH,PrecipitationIn,Events,Conditions,WindDirDegrees,DateUTC
12:50 AM,3.2,-0.4,85,30.27,-9999.0,Variable,1.2,-,N/A,,Clear,0,2013-02-13 22:50:00
1:50 AM,1.4,-0.4,92,30.27,-9999.0,Calm,Calm,-,N/A,,Clear,0,2013-02-13 23:50:00
2:00 AM,2,2,100,,6,Calm,Calm,,,,,,2013-02-14 00:00:00
2:50 AM,1.4,-2.2,85,30.27,-9999.0,Calm,Calm,-,N/A,,Clear,0,2013-02-14 00:50:00
3:50 AM,-2.2,-7.6,78,30.27,-9999.0,Calm,Calm,-,N/A,,Clear,0,2013-02-14 01:50:00
4:50 AM,-0.4,-4.0,85,30.30,-9999.0,Calm,Calm,-,N/A,,Clear,0,2013-02-14 02:50:00
5:50 AM,-2.2,-5.8,85,30.30,5.0,Calm,Calm,-,N/A,,Unknown,0,2013-02-14 03:50:00
6:50 AM,-2.2,-5.8,85,30.33,-9999.0,Calm,Calm,-,N/A,,Clear,0,2013-02-14 04:50:00
7:50 AM,1.4,-2.2,85,30.33,-9999.0,Calm,Calm,-,N/A,,Clear,0,2013-02-14 05:50:00
8:00 AM,1,1,98,,6,Calm,Calm,,,,,,2013-02-14 06:00:00
8:20 AM,5.0,1.4,85,30.33,0.3,Calm,Calm,-,N/A,Fog,Light Freezing Fog,0,2013-02-14 06:20:00
8:50 AM,5.0,1.4,85,30.33,0.1,Calm,Calm,-,N/A,Fog,Light Freezing Fog,0,2013-02-14 06:50:00
9:50 AM,10.4,6.8,85,30.33,0.2,Calm,Calm,-,N/A,Fog,Light Freezing Fog,0,2013-02-14 07:50:00
10:50 AM,17.6,15.8,93,30.33,0.3,Calm,Calm,-,N/A,Fog,Light Freezing Fog,0,2013-02-14 08:50:00
11:50 AM,19.4,19.4,100,30.30,0.6,Calm,Calm,-,N/A,Fog,Light Freezing Fog,0,2013-02-14 09:50:00
12:50 PM,21.2,19.4,93,30.30,1.0,Variable,1.2,-,N/A,Fog,Patches of Fog,0,2013-02-14 10:50:00
1:50 PM,23.0,21.2,93,30.27,0.6,Calm,Calm,-,N/A,Fog,Patches of Fog,0,2013-02-14 11:50:00
2:00 PM,22,22,100,,1,Calm,Calm,,,Fog,Patches of Fog,,2013-02-14 12:00:00
2:50 PM,23.0,21.2,93,30.27,2.5,Calm,Calm,-,N/A,,Mostly Cloudy,0,2013-02-14 12:50:00
3:50 PM,23.0,21.2,93,30.27,3.1,WNW,3.5,-,N/A,,Mostly Cloudy,300,2013-02-14 13:50:00
4:50 PM,23.0,21.2,93,30.24,3.7,Calm,Calm,-,N/A,,Mostly Cloudy,0,2013-02-14 14:50:00
5:50 PM,23.0,21.2,93,30.24,4.3,ENE,1.2,-,N/A,,Mostly Cloudy,60,2013-02-14 15:50:00
6:50 PM,21.2,21.2,100,30.24,4.3,SSW,1.2,-,N/A,,Mostly Cloudy,210,2013-02-14 16:50:00
7:50 PM,23.0,21.2,93,30.21,4.3,Calm,Calm,-,N/A,,Mostly Cloudy,0,2013-02-14 17:50:00
8:00 PM,22,22,98,,4,Calm,Calm,,,,Mist,,2013-02-14 18:00:00
8:50 PM,23.0,21.2,93,30.21,4.3,Calm,Calm,-,N/A,,Mostly Cloudy,0,2013-02-14 18:50:00
9:50 PM,23.0,21.2,93,30.24,4.3,Calm,Calm,-,N/A,,Mostly Cloudy,0,2013-02-14 19:50:00
10:50 PM,23.0,21.2,93,30.21,4.3,Variable,1.2,-,N/A,,Mostly Cloudy,0,2013-02-14 20:50:00
11:50 PM,23.0,21.2,93,30.18,4.3,South,1.2,-,N/A,,Mostly Cloudy,180,2013-02-14 21:50:00